Погода в Кичменгском Городке

Россия / Вологодская область     59°59′31″N   45°48′08″E
темп.,
°C
ветер,
м/с
пор.,
м/с
влажн.,
%
обл.,
%
осадки,
мм/ч
давл.,
гПа
погр.,
м
15 августа, пн
пн1500:00+11в11755 0.0 102310
03:00+10ююз00795 0.0 102410
06:00+13ююз11745 0.0 102538
09:00+20ююз11535 0.0 1024404
12:00+23зюз12450 0.0 10241227
15:00+24з23450 0.0 10231878
18:00+22зсз11651 0.0 102316
21:00+16ссз11795 0.0 102411
16 августа, вт
вт1600:00+15ююз118636 0.0 102511
03:00+14зюз11915 0.0 102611
06:00+16юз11836 0.0 102638
09:00+22ю006072 0.0 1026396
12:00+26ююв0045100 0.0 10261459
15:00+26зюз0144100 0.0 10251761
18:00+23всв1165100 0.0 102411
21:00+18юв2273100 0.0 102512
17 августа, ср
ср1700:00+16ю118097 0.0 102512
03:00+15ююз118765 0.0 102511
06:00+17юз12825 0.0 102574
09:00+23зюз23585 0.0 1025527
12:00+26зюз33465 0.0 10241517
15:00+25юз334838 0.0 10231143
18:00+22юз226540 0.0 102329
21:00+19юз226994 0.0 102315
18 августа, чт
чт1800:00+18з117357 0.0 102311
03:00+15юз11817 0.0 102311
06:00+17з117897 0.0 102430
09:00+23зсз11562 0.0 1024330
12:00+27з11410 0.0 10231606
15:00+27з114010 0.0 10231981
18:00+24юз006142 0.0 102311
21:00+19св117041 0.0 102411
19 августа, пт
пт1900:00+19ю1168100 0.0 102411
03:00+19всв1170100 0.0 102517
06:00+19юв007582 0.0 102612
09:00+24вюв11577 0.0 1026413
12:00+27вюв12457 0.0 10261531
15:00+26ююв225366 0.0 1026668
18:00+24ююз11672 0.0 102616
21:00+19вюв118212 0.0 102711